Погода Ровно

Погода Ровно : погода сейчас, прогноз погоды и архив. Всё, что Вы хотите узнать о погоде Ровно!

Поиск расширенной информации на нашем сайте:

Другие новости

Новости СМИ2

Главная страница сайта

Новости сайта

03.07.2017

Напоминаем, что на нашем специализированном сайте Метеоцентр.Азия вы можете получить высокодетализированные автоматические прогнозы погоды по пунктам России, СНГ и мира в авиационном формате (включающие направление и скорость ветра, видимость, явления погоды, количество и форму облачности, нижнюю и верхнюю границу облачности).


Погода Ровно - сегодня

Время (UTC), дата Ветер
(°,м/с) 
Видим.   Явления Облачность Т
(°С)
Тd
(°С)
f(%) Тe
(°С)
Pmin
(гПа)
dP
(гПа)
Po
(мм)
O2
(г/м3)
Тmin Tmax R s Состояние
почвы
09 20.04.18 350 (С) 20000 м    5/4 1000 м верхняя 
[Cu hum|Ci fib]
+14.4 +3.4 48 +14  1024.8  0.3  748  286           
12 20.04.18 340 (С) 20000 м    4/3 600 м верхняя 
[Cu hum|Ci fib]
+16.8 +1.5 36 +17  1024  -0.6  747  283           
15 20.04.18 340 (С) 20000 м    4/3 1000 м верхняя 
[Cu hum|Ci fib]
+17.4 +2.2 36 +17  1022.5  -1.4  746  282           
18 20.04.18 320 (СЗ) 10 км    3/0 верхняя 
[Ci fib]
+12.9 +2.4 49 +13  1022.7  -0.2  746  287    +17.9       
21 20.04.18 250 (З) 10 км    ясно 
+8 +2.8 70 +8  1022.4  -0.8  746  291           
00 21.04.18 250 (З) 20000 м    ясно 
+5.9 +2.2 77 +6  1021.1  -1.4  745  293           
03 21.04.18 230 (ЮЗ) 20000 м    ясно 
+5.6 +2.7 82 +4  1019.2  -1.9  743  293           
06 21.04.18 240 (ЮЗ) 20000 м    3/0 верхняя 
[Ci fib]
+13.6 +4.3 53 +12  1016.5  -1.9  742  284  +5.2         
09 21.04.18 260 (З) 20000 м    ясно 
+21.4 +0.2 24 +21  1013.1  -2.6  740  276           
12 21.04.18 290 (З) 13-18{18}  20000 м    4/3 1000 м верхняя 
[Cu hum|Ci fib]
+25.2 +5 27 +25  1009.9  -2.7  738  271           
15 21.04.18 310 (СЗ) 15  20000 м    3/1 1000 м верхняя 
[Cu hum|Ci fib]
+24.1 +2 24 +24  1008.7  -1.3  737  272           
18 21.04.18 310 (СЗ) 6{19}  10 км    4/3 600 м верхняя 
[Sc|Ci fib]
+19 +6 43 +19  1010.2  738  277    +25.7       
21 21.04.18 340 (С) 10 км    ясно 
+13.1 -3 33 +14  1013.2  2.3  739  285           
00 22.04.18 290 (З) 10 км    ясно 
+7.8 -1.7 51 +7  1014.6  0.9  740  290           
03 22.04.18 260 (З) 20000 м    ясно 
+3.8 -1.4 69 +3  1015.7  0.7  740  294           
06 22.04.18 320 (СЗ) 20000 м    ясно 
+10.1 +1.8 56 +9  1015.7  0.6  741  288  +3.7         
09 22.04.18 320 (СЗ) 20000 м    ясно 
+15 -0.4 35 +15  1014.9  -0.3  741  283           
12 22.04.18 310 (СЗ) 20000 м    ясно 
+17.9 -3.4 23 +18  1013.2  -1.4  740  280           
15 22.04.18 300 (СЗ) 20000 м    3/0 верхняя 
[Ci fib]
+18.2 -3.2 23 +18  1012.4  -0.8  739  279           
21 22.04.18 260 (З) 10 км    3/0 верхняя 
[Ci fib]
+7 +0.5 63 +6  1014.7  0.6  740  291           
00 23.04.18 270 (З) 10 км    1/0 верхняя 
[Ci fib]
+5.7 +0.9 71 +5  1014.8  740  292           
03 23.04.18 270 (З) 10 км    1/0 верхняя 
[Ci fib]
+4.3 +0.4 76 +5  1015.5  0.5  740  294           
06 23.04.18 280 (З) 20000 м    1/0 верхняя 
[Ci fib]
+11.1 +2.6 56 +12  1015.1  0.3  741  286  +3.1         
09 23.04.18 290 (З) 20000 м    5/0 верхняя 
[Ci fib]
+17.4 -0.8 29 +18  1014.8  0.3  741  281           
12 23.04.18 310 (СЗ) 20000 м    8/0 верхняя 
[Ci fib]
+19.2 -2.4 23 +20  1013.7  -0.9  740  279           
Время (UTC), дата Ветер
(°,м/с) 
Видим.   Явления Облачность Т
(°С)
Тd
(°С)
f(%) Тe
(°С)
Pmin
(гПа)
dP
(гПа)
Po
(мм)
O2
(г/м3)
Тmin Tmax R s Состояние
почвы

Для получения пояснительной информации подведите курсор к названию столбца.

ПОГОДА Ровно - архив

Всё, что Вы хотите узнать о погоде Ровно - удобно и подробно!

Выберите нужную дату (начиная с 1 января 2015* года) и нажмите кнопку "Найти".
Будут отображены архивные сводки погоды по пункту Ровно, начиная с указанной даты.


Отображать данные в формате CSV (для использования в таблицах Excel)


Внимание! Наш архив погоды предназначен исключительно для личного некоммерческого использования в познавательных целях. Если Вам необходимы официальные справки о состоянии погоды (для производственных, юридических, коммерческих и т.п. целей), обращайтесь в органы Росгидромета.

*Примечание: данная дата относится к архиву по метеостанциям СССР (Россия, СНГ, Балтия).
Архив по метеостанциям Зарубежной Европы и Азии (кроме Китая) хранится 10 дней, по другим регионам земного шара (Китай, Африка, Америка, Австралия, Океания) - 1 день.

Ровно - район местоположения метеостанции


Название, широта, долгота, высота метеостанции:
Ровно 50.6°ш. 26.1°д. 231 м над ур. моря [Украина]

Дополнительная информация

В oтличие oт бoльшинства пoгoдных сайтoв мы публикуем пoдрoбную метеoинфoрмацию в детальнoм прoфессиoнальнoм фoрмате.

Характеристики температуры и влажнoсти вoздуха измеряются на высoте 2 м в тени вдали oт зданий и деревьев.
Скoрoсть ветра измеряется на высoте 10 м (на урoвне рoста челoвека скoрoсть ветра ниже в 1.5-2 раза). Если метеoстанция нахoдится в гoрoде или в лесу, тo скoрoсть ветра занижена на 2-4 м/с пo сравнению с oткрытым местoм. Скoрoсть ветра над акватoриями крупных рек и oзёр, а также на вершинах хoлмoв на 2-5 м/с выше, чем в oбычных услoвиях.
Атмoсфернoе давление в разных тoчках местнoсти мoжет значительнo oтличаться oт давления на метеoстанции, в зависимoсти oт услoвий рельефа (при пoдъёме на 10 м давление пoнижается примернo на 1 мм рт.ст.).